軌道要素
Epoch 2009 Jan. 9.0 TT = JDT 2454840.5
T 2009 Jan. 10.64007 TT MPC
q 1.2122575 (2000.0) P Q
z +0.0000162 Peri. 136.86208 -0.92920778 -0.36941174
+/-0.000000 Node 338.53479 -0.34631428 +0.86061128
e 0.9999804 Incl. 178.37359 -0.12899351 +0.35054699
From 3598 observations 2007 July 11-2011 Jan. 1, mean residual 0".5.
|